Regional Weather Roundup
Issued by NWS

Home | Current Version | Previous Version | Graphics & Text | Print | Product List | Glossary On
Versions: 1 2 3 4 5 6 7 8 9 10 11 12 13 14 15 16 17 18 19 20 21 22 23 24 25 26 27 28 29 30 31 32 33 34 35 36 37 38 39 40 41 42 43 44 45 46 47 48 49 50
366
ASUS45 KBOI 090310
RWRID

IDAHO REGIONAL WEATHER ROUNDUP
NATIONAL WEATHER SERVICE BOISE ID
800 PM MST THU DEC 08 2016

NOTE: "FAIR" INDICATES FEW OR NO CLOUDS BELOW 12000 FEET
WITH NO SIGNIFICANT WEATHER AND/OR OBSTRUCTIONS TO VISIBILITY

IDZ012-014-090400-
SOUTHWEST IDAHO


CITY           SKY/WX    TMP DP  RH WIND       PRES   REMARKS
BOISE          LGT SNOW  26  24  92 SE10      30.06F VSB 1   WCI  16
CALDWELL       FLURRIES  26  22  84 SE17G23   30.08F WCI  13
MOUNTAIN HOME  LGT SNOW  25  24  95 E26       30.07F FOG     WCI   9
$$

IDZ016-017-090400-
SOUTHCENTRAL IDAHO


CITY           SKY/WX    TMP DP  RH WIND       PRES   REMARKS
BURLEY         LGT SNOW  22  19  89 NE9       30.06S FOG     WCI  12
JEROME         LGT SNOW  19  16  88 NE26      30.06F VSB 3/4 WCI   1
TWIN FALLS     LGT SNOW  20  18  92 NE10      30.06S VSB 1   WCI   9
$$

IDZ019>023-090400-
SOUTHEAST IDAHO


CITY           SKY/WX    TMP DP  RH WIND       PRES   REMARKS
IDAHO FALLS    LGT SNOW  17  13  84 N7        30.11F FOG     WCI   8
POCATELLO      CLOUDY    21  19  92 N8        30.11S WCI  11
REXBURG        LGT SNOW  16  14  92 E6        30.10F FOG     WCI   7
$$

IDZ006-010-011-018-031-032-090400-
CENTRAL IDAHO MOUNTAINS


CITY           SKY/WX    TMP DP  RH WIND       PRES   REMARKS
MCCALL         LGT SNOW  13   9  84 SW3       29.95R FOG
HAILEY         LGT SNOW  19  16  86 NW7       30.06F WCI  10
STANLEY          N/A      4   0  83 CALM      29.97S
SALMON         CLOUDY    10   9  92 CALM      30.09F
CHALLIS        LGT SNOW  10   8  92 SE3       30.04F FOG
$$

IDZ002-004-006-007-026-090400-
NORTHERN IDAHO


CITY           SKY/WX    TMP DP  RH WIND       PRES   REMARKS
LEWISTON       LGT SNOW  22  18  85 CALM      30.11S FOG
LOWELL           N/A     24  19  81 N3        30.17F
COEUR D`ALENE  CLOUDY    17   7  64 N17       30.12S WCI   1
MULLAN PASS    CLOUDY     1  -3  83 VRB7      29.87F WCI -12
$$




USA.gov is the U.S. government's official web portal to all federal, state and local government web resources and services.